Weather History for KPEX - December, 2012

Change the Weather History Date:

Saturday, December 8, 2012

  Actual Average (KLJF) Record (KLJF)
Temperature  
Mean Temperature 25 °F -  
Max Temperature 29 °F 26 °F 51 °F (1990)
Min Temperature 21 °F 11 °F -15 °F (1976)
Degree Days  
Heating Degree Days 40    
Moisture  
Dew Point 23 °F    
Average Humidity 92    
Maximum Humidity 96    
Minimum Humidity 88    
Precipitation  
Precipitation 0.03 in - - ()
Sea Level Pressure  
Sea Level Pressure 29.99 in    
Wind  
Wind Speed 3 mph (ESE)    
Max Wind Speed 10 mph    
Max Gust Speed -    
Visibility 6 miles    
Events Snow    
Averages and records for this station are not official NWS values.
T = Trace of Precipitation, MM = Missing Value Source: NWS Daily Summary

Daily Weather History Graph

Daily Weather History Graph

Search for Another Location

Airport or City:

Trip Planner

Search our weather history database for the weather conditions in past years. The results will help you decide how hot, cold, wet, or windy it might be!

Date:

Astronomy

Dec. 08, 2012 Rise Set
Actual Time 7:46 AM CST 4:35 PM CST
Civil Twilight 7:12 AM CST 5:09 PM CST
Nautical Twilight 6:35 AM CST 5:47 PM CST
Astronomical Twilight 5:59 AM CST 6:22 PM CST
Moon 1:59 AM CST (12/8) 1:17 PM CST (12/8)
Length of Visible Light 9h 57m
Length of Day
8h 49m
Waning Crescent, 28% of the Moon is Illuminated
Dec 8
Waning Crescent
Dec 13
New
Dec 19
First Quarter
Dec 28
Full
Jan 4
Last Quarter

Hourly Weather History & Observations

Time (CST) Temp. Windchill Dew Point Humidity Pressure Visibility Wind Dir Wind Speed Gust Speed Precip Events Conditions
12:14 AM 22.3 °F - 21.2 °F 96% 30.03 in 7.0 mi Calm Calm - N/A   Overcast
12:33 AM 22.1 °F - 21.0 °F 96% 30.03 in 7.0 mi Calm Calm - N/A   Overcast
12:53 AM 21.9 °F - 20.8 °F 96% 30.03 in 7.0 mi Calm Calm - N/A Snow Light Snow
1:14 AM 22.1 °F - 21.0 °F 96% 30.02 in 7.0 mi Calm Calm - N/A   Overcast
1:33 AM 22.6 °F - 21.2 °F 94% 30.02 in 7.0 mi Calm Calm - N/A Snow Light Snow
1:53 AM 22.8 °F - 21.2 °F 93% 30.02 in 7.0 mi Calm Calm - N/A Snow Light Snow
2:14 AM 22.8 °F - 21.2 °F 93% 30.02 in 7.0 mi Calm Calm - N/A   Overcast
2:53 AM 23.0 °F - 21.2 °F 93% 30.03 in 7.0 mi Calm Calm - N/A   Overcast
3:13 AM 23.0 °F - 21.2 °F 93% 30.03 in 7.0 mi Calm Calm - N/A   Overcast
3:33 AM 23.0 °F - 21.2 °F 93% 30.02 in 7.0 mi Calm Calm - N/A   Overcast
3:53 AM 23.0 °F 18.4 °F 21.2 °F 93% 30.02 in 7.0 mi ENE 3.5 mph - N/A   Overcast
4:13 AM 23.0 °F - 21.2 °F 93% 30.02 in 7.0 mi Calm Calm - N/A   Overcast
4:33 AM 23.0 °F 18.4 °F 20.8 °F 91% 30.02 in 7.0 mi East 3.5 mph - N/A   Overcast
5:13 AM 23.0 °F - 21.2 °F 93% 30.03 in 7.0 mi Calm Calm - N/A   Overcast
5:33 AM 23.2 °F - 20.8 °F 91% 30.03 in 10.0 mi Calm Calm - N/A   Overcast
5:53 AM 23.4 °F 17.4 °F 20.8 °F 90% 30.03 in 7.0 mi East 4.6 mph - N/A   Overcast
6:13 AM 23.2 °F 18.7 °F 20.5 °F 89% 30.02 in 10.0 mi East 3.5 mph - N/A   Overcast
6:33 AM 23.2 °F 17.2 °F 20.3 °F 89% 30.01 in 10.0 mi East 4.6 mph - N/A   Overcast
6:53 AM 23.0 °F 18.4 °F 20.3 °F 89% 30.01 in 10.0 mi ESE 3.5 mph - N/A   Overcast
7:13 AM 23.0 °F 17.0 °F 20.3 °F 89% 30.01 in 10.0 mi ESE 4.6 mph - N/A   Overcast
7:34 AM 23.0 °F 18.4 °F 20.3 °F 89% 30.01 in 10.0 mi ESE 3.5 mph - N/A   Overcast
7:53 AM 23.0 °F 18.4 °F 20.3 °F 89% 30.01 in 10.0 mi East 3.5 mph - N/A   Overcast
8:13 AM 23.2 °F 18.7 °F 20.3 °F 89% 30.01 in 10.0 mi ESE 3.5 mph - N/A   Overcast
8:34 AM 23.5 °F 19.1 °F 20.8 °F 89% 30.02 in 7.0 mi SE 3.5 mph - N/A   Overcast
8:53 AM 23.9 °F 18.0 °F 21.2 °F 89% 30.02 in 10.0 mi ESE 4.6 mph - N/A   Overcast
9:13 AM 24.4 °F 17.5 °F 21.7 °F 89% 30.02 in 7.0 mi ESE 5.8 mph - N/A   Overcast
9:33 AM 23.9 °F 16.8 °F 21.2 °F 89% 30.02 in 7.0 mi ESE 5.8 mph - N/A   Overcast
9:53 AM 24.8 °F 17.9 °F 22.1 °F 89% 30.02 in 7.0 mi SE 5.8 mph - N/A   Overcast
10:13 AM 25.2 °F 18.3 °F 22.5 °F 89% 30.03 in 7.0 mi SSE 5.8 mph - N/A   Overcast
10:33 AM 25.0 °F 18.1 °F 22.5 °F 90% 30.03 in 7.0 mi SE 5.8 mph - N/A   Mostly Cloudy
10:53 AM 25.7 °F 17.1 °F 23.0 °F 89% 30.02 in 5.0 mi SE 8.1 mph - N/A   Mostly Cloudy
11:13 AM 25.5 °F 16.2 °F 23.0 °F 90% 30.03 in 5.0 mi SSE 9.2 mph - N/A   Overcast
11:33 AM 25.3 °F 16.0 °F 23.2 °F 91% 30.02 in 4.0 mi South 9.2 mph - N/A   Overcast
11:53 AM 24.6 °F 16.7 °F 23.0 °F 94% 30.01 in 3.0 mi SSE 6.9 mph - N/A   Overcast
12:13 PM 24.8 °F 16.1 °F 23.5 °F 95% 30.00 in 3.0 mi SSE 8.1 mph - N/A   Overcast
12:33 PM 25.3 °F 16.0 °F 23.7 °F 94% 30.00 in 4.0 mi South 9.2 mph - N/A   Overcast
12:53 PM 25.2 °F 18.3 °F 23.7 °F 94% 30.00 in 3.0 mi South 5.8 mph - N/A   Overcast
1:13 PM 25.2 °F 17.3 °F 23.7 °F 94% 30.00 in 4.0 mi South 6.9 mph - N/A   Overcast
1:33 PM 25.3 °F 19.7 °F 23.9 °F 94% 29.99 in 3.0 mi SSE 4.6 mph - N/A   Overcast
1:53 PM 25.7 °F 19.0 °F 24.4 °F 95% 29.98 in 3.0 mi SE 5.8 mph - N/A   Overcast
2:14 PM 26.1 °F 18.4 °F 24.4 °F 94% 29.97 in 4.0 mi ESE 6.9 mph - N/A   Overcast
2:33 PM 25.7 °F 15.7 °F 23.7 °F 92% 29.96 in 5.0 mi SE 10.4 mph - N/A   Overcast
2:53 PM 26.1 °F 16.8 °F 23.9 °F 92% 29.96 in 5.0 mi SE 9.2 mph - N/A   Overcast
3:13 PM 26.2 °F 17.1 °F 24.4 °F 93% 29.96 in 4.0 mi ESE 9.2 mph - N/A   Overcast
3:33 PM 25.7 °F 15.7 °F 23.5 °F 92% 29.96 in 5.0 mi ESE 10.4 mph - N/A   Overcast
3:53 PM 25.5 °F 18.7 °F 23.4 °F 92% 29.96 in 5.0 mi ESE 5.8 mph - N/A   Overcast
4:13 PM 25.3 °F 17.6 °F 23.5 °F 93% 29.97 in 5.0 mi East 6.9 mph - N/A   Overcast
4:33 PM 24.8 °F 17.9 °F 23.0 °F 93% 29.97 in 5.0 mi East 5.8 mph - N/A   Overcast
4:53 PM 24.4 °F 16.5 °F 22.8 °F 94% 29.97 in 5.0 mi ESE 6.9 mph - N/A   Mostly Cloudy
5:13 PM 24.4 °F 16.5 °F 23.0 °F 94% 29.97 in 5.0 mi ESE 6.9 mph - N/A   Mostly Cloudy
5:34 PM 24.3 °F 17.3 °F 22.8 °F 94% 29.97 in 5.0 mi ESE 5.8 mph - N/A   Mostly Cloudy
5:53 PM 23.9 °F 18.0 °F 22.8 °F 96% 29.97 in 5.0 mi ESE 4.6 mph - N/A   Scattered Clouds
6:13 PM 23.9 °F 19.5 °F 22.8 °F 96% 29.97 in 5.0 mi East 3.5 mph - N/A   Scattered Clouds
6:34 PM 23.9 °F - 22.8 °F 96% 29.98 in 5.0 mi Calm Calm - N/A   Mostly Cloudy
6:53 PM 23.9 °F - 22.8 °F 96% 29.98 in 5.0 mi Calm Calm - N/A   Mostly Cloudy
7:13 PM 24.6 °F 18.8 °F 23.4 °F 95% 29.97 in 5.0 mi ENE 4.6 mph - N/A   Overcast
7:33 PM 25.2 °F 19.5 °F 23.7 °F 94% 29.96 in 5.0 mi East 4.6 mph - N/A   Overcast
7:54 PM 26.4 °F 19.8 °F 24.4 °F 92% 29.96 in 7.0 mi East 5.8 mph - N/A   Overcast
8:13 PM 27.5 °F 18.6 °F 24.8 °F 90% 29.96 in 10.0 mi East 9.2 mph - N/A   Overcast
8:33 PM 28.0 °F 20.0 °F 24.8 °F 88% 29.96 in 10.0 mi East 8.1 mph - N/A   Overcast
8:54 PM 28.4 °F 20.4 °F 25.2 °F 88% 29.95 in 10.0 mi East 8.1 mph - N/A   Overcast
9:13 PM 28.4 °F 20.4 °F 25.5 °F 89% 29.95 in 3.0 mi East 8.1 mph - N/A Snow Light Snow
9:33 PM 28.4 °F 20.4 °F 25.7 °F 90% 29.96 in 2.5 mi East 8.1 mph - N/A Snow Light Snow
9:53 PM 28.4 °F 19.7 °F 26.6 °F 93% 29.96 in 1.8 mi East 9.2 mph - N/A Snow Light Snow
10:13 PM 29.1 °F 20.6 °F 27.0 °F 92% 29.96 in 1.5 mi East 9.2 mph - N/A Snow Light Snow
10:34 PM 28.9 °F 21.1 °F 27.3 °F 94% 29.96 in 1.2 mi East 8.1 mph - N/A Snow Light Snow
10:54 PM 28.8 °F 20.2 °F 27.5 °F 95% 29.96 in 0.8 mi East 9.2 mph - 0.02 in Snow Snow
11:13 PM 28.9 °F 19.8 °F 27.5 °F 94% 29.96 in 1.2 mi East 10.4 mph - N/A Snow Light Snow
11:33 PM 28.9 °F 21.1 °F 27.5 °F 94% 29.96 in 1.0 mi East 8.1 mph - 0.01 in Snow Snow
11:53 PM 28.9 °F 21.1 °F 27.5 °F 94% 29.97 in 1.2 mi East 8.1 mph - 0.01 in Snow Light Snow